EW4120 Weather Reports


Display with metric or nautical units.
time (UTC)temp
F
wind
direction
speed
MPH
gust
MPH
rain 1hr
in
rain 24hr
in
rain mn
in
humidity
%
barometer
mb
20260510080536 54 0.0 0.0 0.00 0.00 0.00 97 1013.1
20260510075516 54 0.0 0.0 0.00 0.00 0.00 96 1013.0
20260510074516 54 0.0 0.0 0.00 0.00 0.00 97 1012.9
20260510073516 54 0.0 0.0 0.00 0.00 0.00 97 1012.9
20260510072516 54 0.0 0.0 0.00 0.00 0.00 96 1012.9
20260510071556 54 0.0 0.0 0.00 0.00 0.00 96 1012.7
20260510070516 55 0.0 0.0 0.00 0.00 0.00 96 1012.7
20260510064556 55 0.0 0.0 0.00 0.00 0.00 96 1012.8
20260510063536 56 0.0 0.0 0.00 0.00 0.00 96 1012.8
20260510062556 56 0.0 0.0 0.00 0.00 0.00 97 1012.8
20260510061516 56 0.0 0.0 0.00 0.00 0.00 96 1012.9
20260510060536 56 0.0 0.0 0.00 0.00 0.00 96 1012.9
20260510055516 57 0.0 0.0 0.00 0.00 0.00 96 1012.9
20260510054516 57 0.0 0.0 0.00 0.00 0.00 96 1012.9
20260510053516 57 0.0 0.0 0.00 0.00 0.00 97 1013.0
20260510052516 57 0.0 0.0 0.00 0.00 0.00 96 1013.2
20260510051536 57 0.0 0.0 0.00 0.00 0.00 96 1013.2
20260510050556 57 0.0 0.0 0.00 0.00 0.00 96 1013.2
20260510045516 57 0.0 0.0 0.00 0.00 0.00 95 1013.2
20260510044538 57 0.0 0.0 0.00 0.00 0.00 95 1013.2
20260510043538 57 0.0 0.0 0.00 0.00 0.00 95 1013.3
20260510042658 57 0.0 0.0 0.00 0.00 0.00 95 1013.2
20260510041658 58 0.0 0.0 0.00 0.00 0.00 95 1013.1
20260510040538 58 0.0 0.0 0.00 0.00 0.00 95 1013.1
20260510035516 58 0.0 0.0 0.00 0.00 0.00 95 1013.0
20260510034516 58 0.0 0.0 0.00 0.00 0.00 95 1013.1
20260510033536 58 0.0 0.0 0.00 0.00 0.00 95 1013.1
20260510032536 58 0.0 0.0 0.00 0.00 0.00 94 1013.1
20260510031536 59 0.0 0.0 0.00 0.00 0.00 94 1013.1
20260510030536 59 0.0 0.0 0.00 0.00 0.00 94 1013.1
20260510025556 59 0.0 0.0 0.00 0.00 0.00 94 1013.0
20260510024556 59 0.0 0.0 0.00 0.00 0.00 93 1013.0
20260510023637 59 0.0 0.0 0.00 0.00 0.00 93 1012.9
20260510022516 59 0.0 0.0 0.00 0.00 0.00 92 1012.9
20260510021556 60 0.0 0.0 0.00 0.00 0.00 92 1012.7
20260510020516 60 0.0 0.0 0.00 0.00 0.00 92 1012.7
20260510015516 60 0.0 0.0 0.00 0.00 0.00 91 1012.6
20260510014516 61 0.0 0.0 0.00 0.00 0.00 91 1012.5
20260510013516 61 0.0 0.0 0.00 0.00 0.00 91 1012.3
20260510012656 62 0.0 0.0 0.00 0.00 0.00 89 1012.1
20260510011516 62 0.0 0.0 0.00 0.00 0.00 88 1011.7
20260510010556 63 0.0 0.0 0.00 0.00 0.00 89 1011.7
20260510005536 64 0.0 0.0 0.00 0.00 0.00 86 1011.5
20260510004556 64 0.0 0.0 0.00 0.00 0.00 86 1011.3
20260510003516 65 0.0 0.0 0.00 0.00 0.00 85 1011.1
20260510002656 66 0.0 0.0 0.00 0.00 0.00 83 1011.1
20260510001516 67 0.0 0.0 0.00 0.00 0.00 81 1011.0
20260509235538 69 0.0 0.0 0.00 0.00 0.00 79 1010.9
20260509234518 70 0.0 0.0 0.00 0.00 0.00 78 1010.8
20260509233538 70 0.0 1.0 0.00 0.00 0.00 77 1010.6
20260509232517 71 0.0 3.0 0.00 0.00 0.00 76 1010.6
20260509231517 72 0.0 1.0 0.00 0.00 0.00 75 1010.3
20260509230618 72 0.0 2.0 0.00 0.00 0.00 74 1010.4
20260509225517 73 293 1.0 4.0 0.00 0.00 0.00 73 1010.3
20260509224517 73 315 1.0 6.0 0.00 0.00 0.00 71 1010.1
20260509223517 74 0.0 3.0 0.00 0.00 0.00 70 1010.0
20260509222517 74 0.0 2.0 0.00 0.00 0.00 70 1010.2
20260509221558 75 293 1.0 6.0 0.00 0.00 0.00 68 1010.1
20260509220517 75 0.0 3.0 0.00 0.00 0.00 69 1010.2
20260509215538 75 315 1.0 5.0 0.00 0.00 0.00 68 1010.1
20260509214557 75 315 1.0 5.0 0.00 0.00 0.00 68 1010.1
20260509213557 76 0.0 2.0 0.00 0.00 0.00 68 1010.2
20260509212517 75 0.0 2.0 0.00 0.00 0.00 70 1010.1
20260509211517 74 338 1.0 5.0 0.00 0.00 0.00 69 1010.2
20260509210517 76 68 1.0 5.0 0.00 0.00 0.00 66 1010.1
20260509205517 77 0.0 2.0 0.00 0.00 0.00 69 1010.1
20260509204557 76 315 1.0 3.0 0.00 0.00 0.00 70 1009.8
20260509203537 74 0.0 2.0 0.00 0.00 0.00 72 1010.0
20260509202557 73 135 1.0 5.0 0.00 0.00 0.00 70 1010.3
20260509201517 75 315 1.0 4.0 0.00 0.00 0.00 68 1010.2
20260509200557 75 315 1.0 5.0 0.00 0.00 0.00 68 1010.3
20260509195638 75 293 1.0 5.0 0.00 0.00 0.00 73 1010.4
20260509194557 74 315 1.0 5.0 0.00 0.00 0.00 72 1010.4
20260509193517 73 315 1.0 5.0 0.00 0.00 0.00 76 1010.5
20260509192517 72 315 1.0 5.0 0.00 0.00 0.00 77 1010.7
20260509191557 71 0.0 2.0 0.00 0.00 0.00 76 1010.7
20260509190557 71 315 1.0 5.0 0.00 0.00 0.00 74 1010.7
20260509185517 72 0.0 1.0 0.00 0.00 0.00 72 1010.8
20260509184517 71 315 1.0 3.0 0.00 0.00 0.00 73 1010.8
20260509183517 72 315 1.0 4.0 0.00 0.00 0.00 73 1010.7
20260509182517 71 0.0 2.0 0.00 0.00 0.00 74 1010.9
20260509181517 71 315 1.0 5.0 0.00 0.00 0.00 75 1011.2
20260509180517 70 293 2.0 7.0 0.00 0.00 0.00 73 1011.2
20260509175517 70 315 1.0 4.0 0.00 0.00 0.00 76 1011.3
20260509173557 70 248 1.0 4.0 0.00 0.00 0.00 73 1011.3
20260509172517 71 315 1.0 6.0 0.00 0.00 0.00 72 1011.3
20260509171517 71 293 2.0 7.0 0.00 0.00 0.00 73 1011.3
20260509170537 71 315 1.0 4.0 0.00 0.00 0.00 74 1011.4
20260509165537 71 0.0 3.0 0.00 0.00 0.00 75 1011.6
20260509164517 70 0.0 3.0 0.00 0.00 0.00 77 1011.7
20260509163517 70 315 1.0 4.0 0.00 0.00 0.00 78 1012.0
20260509162517 70 270 1.0 5.0 0.00 0.00 0.00 79 1012.3
20260509161537 70 315 1.0 3.0 0.00 0.00 0.00 82 1012.3
20260509160557 70 315 1.0 6.0 0.00 0.00 0.00 79 1012.4
20260509155537 68 315 1.0 5.0 0.00 0.00 0.00 82 1012.5
20260509154517 67 315 1.0 6.0 0.00 0.00 0.00 82 1012.3
20260509153517 68 0.0 1.0 0.00 0.00 0.00 84 1012.2
20260509152537 67 338 1.0 4.0 0.00 0.00 0.00 84 1012.3
20260509151517 66 315 1.0 3.0 0.00 0.00 0.00 86 1012.4
20260509150537 65 0.0 2.0 0.00 0.00 0.00 88 1012.4
20260509145637 64 0.0 2.0 0.00 0.00 0.00 86 1012.5
20260509144537 64 0.0 3.0 0.00 0.00 0.00 86 1012.4
20260509143517 64 0.0 1.0 0.00 0.00 0.00 86 1012.3
20260509142537 63 0.0 4.0 0.00 0.00 0.00 87 1012.6
20260509141517 63 0.0 2.0 0.00 0.00 0.00 87 1012.6
20260509140617 63 0.0 3.0 0.00 0.00 0.00 87 1012.6
20260509135617 62 0.0 1.0 0.00 0.00 0.00 87 1012.8
20260509134537 62 0.0 0.0 0.00 0.00 0.00 88 1012.7
20260509133517 61 0.0 1.0 0.00 0.00 0.00 90 1013.0
20260509132516 60 0.0 1.0 0.00 0.00 0.00 89 1013.5
20260509131516 59 0.0 1.0 0.00 0.00 0.00 90 1013.7
20260509130557 59 0.0 2.0 0.00 0.00 0.00 92 1013.6
20260509125516 57 0.0 1.0 0.00 0.00 0.00 95 1013.7
20260509124536 56 0.0 1.0 0.00 0.00 0.00 98 1013.7
20260509123516 55 0.0 1.0 0.00 0.00 0.00 98 1013.6
20260509122516 54 0.0 0.0 0.00 0.00 0.00 98 1013.2
20260509121637 52 0.0 0.0 0.00 0.00 0.00 98 1013.4
20260509120536 51 0.0 0.0 0.00 0.00 0.00 98 1013.4
20260509115516 50 0.0 0.0 0.00 0.00 0.00 98 1013.3
20260509114536 49 0.0 0.0 0.00 0.00 0.00 97 1013.1
20260509113516 48 0.0 0.0 0.00 0.00 0.00 97 1013.0
20260509112556 48 0.0 0.0 0.00 0.00 0.00 97 1013.1
20260509111556 47 0.0 0.0 0.00 0.00 0.00 97 1013.2
20260509110516 46 0.0 0.0 0.00 0.00 0.00 97 1013.1
20260509105516 45 0.0 0.0 0.00 0.00 0.00 96 1013.1
20260509104516 44 0.0 0.0 0.00 0.00 0.00 96 1012.7
20260509103616 44 0.0 0.0 0.00 0.00 0.00 96 1012.6
20260509102617 44 0.0 0.0 0.00 0.00 0.00 95 1012.4
20260509101516 44 0.0 0.0 0.00 0.00 0.00 95 1012.4
20260509100536 44 0.0 0.0 0.00 0.00 0.00 95 1012.4
20260509095516 44 0.0 0.0 0.00 0.00 0.00 95 1012.3
20260509094636 44 0.0 0.0 0.00 0.00 0.00 95 1012.3
20260509093536 44 0.0 0.0 0.00 0.00 0.00 95 1012.3
20260509092516 45 0.0 0.0 0.00 0.00 0.00 95 1012.3
20260509091536 45 0.0 0.0 0.00 0.00 0.00 95 1012.5
20260509090536 45 0.0 0.0 0.00 0.00 0.00 95 1012.7
20260509085516 45 0.0 0.0 0.00 0.00 0.00 95 1012.8
20260509084536 45 0.0 0.0 0.00 0.00 0.00 95 1012.9
20260509083516 45 0.0 0.0 0.00 0.00 0.00 95 1012.9
20260509082516 45 0.0 0.0 0.00 0.00 0.00 94 1012.8
20260509081516 45 0.0 0.0 0.00 0.00 0.00 95 1012.9